Location: Eastchurch
(51.4000°N, 0.8667°E)
Time: 18:01:47
(UTC+00:00)

YAOGAN 3 - Visible Passes

Search period start: 11 April 2026 00:00
Search period end: 21 April 2026 00:00
Orbit: 595 x 597 km, 97.8° (Epoch: 11 April)

Date Brightness Start Highest point End Pass type
(mag) Time Alt. Az. Time Alt. Az. Time Alt. Az.
11 Apr 6.5 19:31:27 10° SSW 19:35:11 31° W 19:38:57 10° NNW visible
12 Apr 6.9 19:41:42 10° SSW 19:45:11 25° W 19:48:42 10° NW visible
13 Apr 7.2 19:52:03 10° SW 19:55:12 20° W 19:58:23 10° NW visible
14 Apr 7.3 20:02:30 10° SW 20:05:14 17° W 20:07:59 10° NW visible
15 Apr 7.5 20:13:09 10° WSW 20:15:17 14° W 20:17:25 10° WNW visible
16 Apr 7.7 20:24:14 10° W 20:25:20 11° W 20:26:26 10° WNW visible
